Wind_Speed
32 33 33 34 36 37 37 38 39 40 40 40 40 39 38 38 38 37 37 37 37 37 38 39 41 42 42 41 41 40 39 38 38 39 41 42 41 42 42 43 44 45 45
34 35 35 37 38 39 40 41 41 41 42 41 41 40 39 38 38 37 37 36 36 36 37 38 40 42 43 44 43 43 42 41 40 39 41 43 43 43 43 43 44 46 46
36 37 38 39 40 41 42 43 43 43 43 43 42 41 40 39 38 37 36 35 35 35 36 37 38 41 42 44 45 46 46 45 43 41 41 42 44 44 44 44 45 46 46
38 39 40 41 42 43 44 45 45 45 44 44 43 42 40 38 37 36 35 35 35 36 36 37 39 40 42 44 46 47 48 48 47 46 44 44 44 46 45 45 45 46 47
39 40 41 43 44 45 46 46 46 45 45 45 43 42 40 38 36 36 35 35 35 36 37 38 40 41 43 45 46 48 49 50 50 49 48 46 45 47 46 46 47 47 48
40 41 42 44 45 46 46 47 46 46 46 45 43 41 39 38 37 36 35 35 36 36 38 39 40 41 43 46 47 49 51 52 53 53 52 51 48 48 48 48 48 49 48
41 42 43 45 46 47 47 47 47 46 45 44 42 40 39 38 38 37 37 36 36 36 37 39 40 41 43 45 47 50 52 53 55 56 55 54 52 51 50 50 49 49 50
42 43 44 46 47 48 48 47 47 46 45 43 42 40 39 39 39 38 37 36 35 36 36 37 39 40 42 44 46 49 51 54 56 57 57 57 57 55 52 51 50 50 50
43 44 45 47 48 48 48 47 46 46 44 43 42 41 39 39 38 36 36 35 35 35 36 37 38 39 41 44 45 47 50 53 57 59 60 60 60 58 56 54 52 50 50
44 45 46 48 48 48 47 46 46 45 44 43 42 40 39 38 37 35 34 33 32 33 34 35 36 37 39 42 44 47 49 52 56 59 61 62 62 60 59 57 54 51 51
45 46 48 49 48 48 47 47 46 45 43 42 41 39 38 37 35 33 32 32 31 31 31 32 33 34 36 39 41 44 47 52 56 59 61 63 64 63 61 59 57 54 52
46 48 49 49 49 48 47 47 45 44 43 41 40 38 37 35 34 32 31 30 30 30 29 28 28 28 30 32 35 40 45 49 53 56 59 63 65 65 63 62 60 56 54
48 49 50 49 49 48 47 45 44 43 41 39 38 37 35 34 33 31 30 29 28 27 25 23 22 23 24 25 28 33 40 45 50 53 57 60 64 65 65 64 62 59 55
51 51 50 49 49 48 47 45 43 42 40 38 37 35 33 32 31 30 28 27 26 24 21 19 18 18 19 20 22 27 33 39 45 49 53 57 61 64 66 66 64 62 57
52 52 51 50 48 47 46 44 42 41 38 36 35 34 32 31 30 30 27 25 24 21 18 16 15 14 14 14 16 20 26 32 39 45 50 54 57 60 63 65 65 63 60
54 53 51 49 47 45 44 42 41 39 37 35 34 33 32 31 30 29 27 24 22 19 16 14 13 12 11 10 12 16 20 26 32 38 44 48 52 55 58 62 64 63 61
55 53 50 47 45 44 42 39 38 37 36 35 33 32 31 30 29 28 26 23 20 17 14 13 12 10 8 7 8 11 15 20 26 31 37 42 46 50 54 58 61 61 60
54 52 49 45 43 42 40 38 36 34 33 33 32 31 30 30 29 27 25 22 19 16 13 12 11 8 5 4 5 9 13 17 22 25 31 36 41 45 49 54 57 59 59
52 49 46 44 41 39 38 36 34 33 32 31 31 30 29 30 29 27 25 22 18 15 13 11 9 7 5 4 4 7 12 15 18 21 26 31 35 40 44 49 54 56 56
50 47 44 41 39 37 36 34 33 32 31 30 30 29 28 29 28 27 24 21 17 14 12 10 8 6 5 5 5 7 10 13 16 19 22 27 31 36 41 46 49 52 53
48 45 42 39 37 35 34 33 32 31 29 29 28 27 27 27 27 25 23 20 16 13 11 9 7 6 5 5 6 8 10 13 15 17 20 25 29 33 38 43 47 48 50
45 43 39 37 35 33 32 31 30 29 27 27 26 26 26 26 26 24 22 19 15 12 10 9 8 6 6 5 6 7 9 12 15 18 20 23 26 31 36 40 44 47 48
43 40 37 35 33 31 30 29 28 27 26 25 24 24 25 25 24 23 21 19 16 13 10 8 8 7 7 7 8 9 10 11 14 17 19 22 25 29 33 37 41 45 46
40 38 35 33 31 30 29 27 26 24 24 23 22 23 24 23 23 22 20 18 16 14 11 9 8 7 7 8 9 10 12 12 14 15 18 20 24 27 31 35 38 42 45
38 35 33 31 29 27 26 25 24 23 22 21 21 21 22 22 21 21 20 17 15 14 12 10 8 6 7 8 9 11 13 14 15 16 18 20 22 25 29 34 37 40 43
35 33 31 29 27 25 24 23 22 21 20 19 19 19 19 20 19 19 19 17 16 14 12 10 8 6 5 7 8 11 12 14 16 18 20 21 22 24 27 31 35 38 40
Wind_Direction
335 334 334 333 333 332 331 330 327 325 322 319 314 310 304 299 295 290 285 280 274 268 262 257 253 249 246 244 241 240 238 236 234 233 232 229 226 222 220 220 220 219 219
335 334 334 333 333 332 331 330 328 326 323 320 316 311 306 301 296 291 286 281 275 269 263 257 252 250 247 244 241 239 237 236 234 233 233 230 228 225 221 219 219 217 218
335 334 333 333 332 332 331 329 328 326 324 321 317 313 308 302 297 292 287 281 275 270 264 259 253 250 247 245 242 240 238 236 234 232 231 230 228 224 223 220 218 217 216
333 333 332 332 331 331 330 329 328 326 324 322 319 315 310 304 299 294 289 283 277 271 266 261 256 252 249 246 243 240 238 236 234 232 230 229 228 226 224 222 219 217 215
333 332 332 331 331 330 330 329 327 326 325 322 319 316 312 307 301 296 291 285 279 274 269 264 259 255 251 247 244 241 238 236 234 232 230 229 227 226 225 223 219 217 216
332 331 331 331 330 329 329 328 327 326 324 322 319 317 313 308 304 298 293 287 282 276 271 267 262 257 252 248 245 241 239 236 233 231 230 229 227 225 224 221 219 218 217
331 331 330 330 330 329 328 328 327 326 325 323 320 317 314 310 306 301 296 291 285 279 274 269 264 259 254 249 245 242 238 235 233 231 229 229 227 225 223 220 218 219 217
330 330 330 330 329 329 329 328 327 326 325 323 321 318 315 312 309 304 299 294 289 282 277 272 267 262 257 251 246 242 239 235 232 230 228 228 226 224 222 220 218 217 217
330 330 329 329 329 328 328 328 327 327 326 324 322 320 317 315 312 308 302 298 292 287 281 276 270 265 259 253 247 242 238 235 232 229 227 226 225 224 222 220 217 218 217
330 329 329 329 329 328 328 328 328 327 327 326 324 322 320 318 315 312 307 302 297 291 285 279 273 267 260 255 249 243 238 234 231 229 226 225 224 223 221 220 217 217 217
329 329 329 329 328 328 328 328 328 328 327 326 325 324 323 321 319 315 311 305 301 296 290 283 276 270 263 258 251 243 236 232 229 227 225 224 222 221 220 219 217 216 217
328 327 328 328 328 328 328 328 328 328 328 327 327 326 325 324 322 319 316 311 307 303 296 288 280 273 267 259 251 242 236 231 228 226 224 222 221 220 218 218 217 217 217
328 328 328 328 329 329 329 329 329 329 329 328 329 329 328 326 326 323 321 317 313 309 303 294 286 279 271 260 249 241 234 229 226 224 222 221 219 218 217 216 216 215 215
327 328 328 327 328 330 329 329 329 330 329 329 330 331 330 329 328 327 325 324 321 316 310 302 296 288 276 262 249 240 232 227 224 222 220 219 218 217 216 214 214 214 213
327 327 327 327 327 329 329 329 329 330 330 330 331 332 332 331 330 329 328 327 326 323 317 311 304 296 286 265 248 235 228 222 220 220 219 218 217 216 215 214 213 214 213
326 326 327 327 327 328 329 329 330 331 331 331 333 334 334 333 333 331 330 328 327 325 321 318 312 304 292 271 247 232 224 218 216 217 217 216 216 215 214 213 213 214 213
326 326 327 327 328 328 328 329 330 331 331 332 333 334 335 335 335 334 332 329 328 326 322 320 315 308 296 269 243 225 215 211 209 211 213 214 214 214 214 212 211 212 213
325 326 327 327 327 328 329 329 329 331 331 332 333 334 335 336 336 336 334 330 328 326 322 319 319 311 290 263 236 214 205 202 202 208 210 212 213 213 212 211 210 210 212
323 324 326 327 327 328 329 329 329 331 332 333 334 335 335 335 336 336 336 332 326 323 322 320 314 304 280 255 232 209 201 201 202 204 206 207 208 209 209 209 208 209 210
321 323 325 326 327 327 328 329 329 330 331 332 334 336 336 335 336 337 337 335 328 319 315 314 312 302 276 247 224 209 204 204 203 202 202 203 203 204 204 204 205 206 207
318 320 322 324 325 326 327 327 328 329 330 332 334 336 337 338 338 339 338 337 332 322 313 308 304 293 275 246 225 212 206 204 204 202 201 200 199 198 199 201 202 204 204
315 317 319 321 323 324 325 326 326 328 329 332 334 337 340 341 342 342 341 340 337 329 315 303 296 283 267 250 228 217 210 207 204 202 200 198 197 198 199 199 201 202 204
312 314 315 317 319 321 322 323 324 325 327 330 333 337 340 343 345 347 347 345 342 336 325 308 294 279 262 245 227 217 211 206 204 202 199 199 198 197 198 199 199 201 202
309 310 311 312 314 317 319 320 322 323 324 327 331 336 340 343 346 348 349 349 347 344 335 321 301 280 266 248 229 218 215 211 206 203 202 200 198 196 197 197 199 200 201
304 305 307 308 310 312 315 317 319 320 322 325 329 334 339 344 348 351 353 353 353 351 348 339 323 294 269 253 236 223 217 212 208 205 202 200 197 195 196 197 198 199 201
299 300 302 303 305 307 309 312 315 317 319 322 327 333 338 344 349 353 356 358 358 360 1 359 344 322 295 264 239 224 217 211 207 205 203 200 197 196 196 197 197 197 199
Height
5787 5782 5777 5771 5766 5760 5755 5749 5744 5738 5733 5727 5722 5717 5712 5708 5704 5701 5699 5698 5697 5697 5698 5699 5701 5704 5707 5710 5714 5718 5722 5727 5732 5735 5739 5743 5748 5754 5759 5766 5772 5779 5785
5781 5776 5770 5765 5759 5753 5747 5741 5735 5729 5723 5717 5712 5706 5701 5697 5693 5690 5687 5685 5685 5685 5685 5687 5689 5691 5695 5698 5702 5707 5711 5716 5721 5726 5729 5734 5739 5744 5750 5756 5763 5769 5776
5775 5770 5764 5758 5752 5746 5739 5733 5727 5720 5713 5707 5701 5696 5690 5685 5681 5678 5676 5674 5673 5672 5673 5674 5676 5678 5681 5685 5689 5694 5699 5704 5710 5715 5719 5724 5729 5735 5741 5747 5753 5760 5767
5769 5763 5757 5751 5744 5738 5731 5724 5717 5711 5704 5697 5691 5685 5679 5674 5670 5666 5664 5662 5660 5660 5660 5661 5663 5665 5668 5671 5676 5680 5685 5691 5697 5703 5708 5713 5719 5725 5731 5737 5744 5751 5758
5763 5757 5750 5743 5737 5730 5723 5715 5708 5701 5694 5687 5680 5674 5668 5663 5658 5655 5652 5650 5648 5647 5647 5647 5649 5651 5654 5657 5661 5666 5671 5677 5684 5690 5697 5702 5708 5715 5721 5727 5734 5741 5748
5756 5750 5743 5736 5729 5722 5714 5707 5699 5691 5684 5677 5670 5663 5657 5652 5647 5643 5640 5637 5635 5634 5633 5632 5633 5636 5638 5642 5646 5651 5656 5663 5670 5677 5684 5690 5697 5704 5710 5717 5724 5732 5740
5750 5743 5736 5729 5721 5713 5706 5698 5690 5682 5674 5667 5659 5653 5647 5641 5636 5631 5627 5624 5622 5620 5618 5617 5618 5620 5622 5625 5629 5634 5640 5647 5654 5662 5670 5677 5684 5692 5700 5707 5714 5722 5730
5743 5736 5728 5721 5713 5705 5697 5689 5681 5673 5665 5657 5649 5642 5636 5630 5624 5619 5614 5611 5608 5606 5604 5603 5603 5604 5606 5609 5613 5618 5624 5631 5638 5647 5655 5663 5670 5678 5687 5695 5703 5711 5719
5735 5728 5721 5713 5705 5696 5688 5680 5672 5663 5655 5647 5639 5632 5625 5619 5612 5607 5602 5598 5595 5592 5590 5588 5588 5588 5589 5592 5596 5602 5608 5614 5620 5629 5638 5647 5656 5665 5675 5683 5692 5700 5708
5728 5720 5713 5705 5697 5688 5680 5671 5662 5654 5645 5637 5630 5622 5615 5609 5602 5596 5591 5586 5583 5579 5576 5574 5572 5572 5573 5575 5579 5584 5591 5597 5603 5612 5621 5631 5641 5651 5662 5671 5681 5690 5698
5720 5713 5705 5697 5688 5680 5671 5662 5654 5645 5637 5629 5621 5613 5606 5599 5593 5586 5581 5576 5571 5567 5563 5560 5558 5557 5557 5559 5562 5567 5573 5578 5585 5595 5604 5615 5626 5637 5649 5659 5669 5678 5688
5713 5705 5697 5688 5680 5671 5663 5654 5645 5637 5629 5620 5612 5605 5597 5590 5584 5578 5571 5566 5561 5556 5551 5548 5545 5544 5544 5544 5546 5550 5555 5562 5570 5579 5589 5600 5612 5623 5635 5646 5656 5666 5676
5704 5696 5688 5679 5671 5663 5654 5646 5637 5629 5621 5613 5605 5598 5590 5583 5576 5570 5564 5558 5552 5547 5542 5538 5536 5534 5533 5533 5534 5537 5541 5548 5557 5566 5576 5586 5597 5608 5620 5632 5644 5655 5665
5696 5688 5679 5671 5662 5654 5646 5638 5630 5622 5614 5606 5599 5591 5584 5577 5570 5563 5557 5551 5545 5540 5535 5532 5529 5526 5525 5524 5525 5527 5531 5537 5545 5554 5563 5572 5583 5595 5607 5620 5632 5644 5654
5687 5679 5671 5663 5654 5646 5638 5630 5623 5615 5607 5600 5593 5586 5579 5572 5565 5558 5552 5546 5540 5535 5531 5527 5524 5522 5519 5518 5519 5520 5524 5529 5535 5543 5552 5562 5572 5584 5596 5608 5620 5632 5644
5679 5670 5662 5654 5646 5639 5631 5623 5615 5608 5601 5594 5587 5580 5573 5567 5560 5553 5547 5541 5536 5531 5527 5524 5521 5518 5516 5515 5515 5516 5519 5523 5529 5535 5544 5553 5563 5574 5585 5597 5609 5622 5633
5670 5662 5654 5646 5639 5631 5624 5617 5610 5602 5595 5588 5582 5575 5569 5562 5556 5549 5543 5537 5532 5528 5525 5522 5519 5516 5514 5513 5513 5514 5516 5520 5525 5531 5539 5547 5556 5566 5577 5588 5600 5612 5623
5661 5653 5646 5638 5631 5624 5617 5611 5604 5598 5591 5584 5577 5571 5565 5558 5552 5545 5539 5534 5529 5526 5523 5520 5517 5515 5514 5513 5512 5513 5515 5518 5523 5528 5534 5542 5550 5559 5569 5580 5592 5603 5615
5652 5645 5638 5631 5624 5618 5611 5605 5598 5592 5586 5580 5573 5567 5561 5555 5548 5542 5536 5531 5526 5523 5521 5518 5516 5514 5513 5513 5512 5513 5515 5518 5522 5526 5532 5538 5545 5554 5563 5573 5584 5595 5607
5644 5637 5630 5624 5617 5611 5605 5599 5593 5587 5581 5575 5569 5563 5557 5551 5545 5539 5533 5528 5524 5521 5518 5516 5515 5513 5512 5512 5512 5513 5515 5517 5520 5524 5529 5535 5542 5549 5558 5568 5578 5589 5600
5635 5629 5623 5617 5611 5605 5600 5594 5588 5582 5577 5571 5566 5560 5554 5548 5542 5536 5531 5526 5522 5518 5516 5514 5513 5512 5512 5512 5512 5513 5514 5517 5519 5523 5527 5533 5539 5546 5554 5563 5572 5583 5593
5626 5620 5615 5610 5604 5599 5594 5589 5583 5578 5573 5568 5562 5557 5551 5546 5540 5534 5529 5524 5520 5517 5514 5513 5512 5511 5511 5511 5511 5512 5514 5516 5518 5522 5526 5531 5537 5543 5550 5558 5568 5577 5587
5617 5612 5607 5603 5598 5593 5588 5583 5579 5574 5569 5564 5559 5554 5549 5544 5538 5532 5527 5522 5518 5515 5513 5511 5510 5509 5509 5510 5510 5512 5513 5515 5518 5521 5525 5529 5534 5540 5547 5555 5563 5572 5582
5607 5603 5599 5595 5591 5587 5583 5578 5574 5570 5565 5561 5556 5552 5547 5542 5536 5531 5526 5522 5518 5514 5512 5509 5508 5507 5507 5507 5508 5510 5512 5514 5517 5520 5523 5527 5532 5537 5544 5551 5559 5568 5577
5597 5594 5591 5587 5584 5581 5577 5573 5569 5565 5561 5558 5553 5549 5545 5540 5535 5530 5525 5521 5517 5514 5511 5508 5506 5505 5505 5505 5506 5507 5509 5512 5515 5518 5521 5525 5530 5535 5541 5548 5555 5564 5572
5587 5585 5582 5580 5577 5574 5571 5568 5564 5561 5558 5554 5551 5547 5543 5539 5534 5530 5525 5521 5517 5514 5511 5508 5506 5504 5503 5503 5503 5504 5507 5509 5512 5515 5519 5524 5528 5533 5539 5545 5552 5560 5568